TimePST,TemperatureF,Dew PointF,Humidity,Sea Level PressureIn,VisibilityMPH,Wind Direction,Wind SpeedMPH,Gust SpeedMPH,PrecipitationIn,Events,Conditions,WindDirDegrees,DateUTC
12:15 AM,26.6,24.8,93,30.22,0.2,East,3.5,-,N/A,,Overcast,100,2013-02-03 08:15:00
12:35 AM,26.6,24.8,93,30.21,1.0,Calm,Calm,-,N/A,,Overcast,0,2013-02-03 08:35:00
12:55 AM,26.6,24.8,93,30.21,0.5,North,5.8,-,N/A,,Overcast,10,2013-02-03 08:55:00
1:15 AM,26.6,26.6,100,30.21,0.2,North,5.8,-,N/A,,Overcast,10,2013-02-03 09:15:00
1:55 AM,26.6,24.8,93,30.21,0.2,NNE,5.8,-,N/A,,Overcast,20,2013-02-03 09:55:00
2:15 AM,26.6,24.8,93,30.21,0.2,NNE,6.9,-,N/A,,Overcast,30,2013-02-03 10:15:00
2:35 AM,26.6,26.6,100,30.21,0.2,ENE,5.8,-,N/A,,Overcast,70,2013-02-03 10:35:00
2:55 AM,26.6,24.8,93,30.21,0.2,NNE,5.8,-,N/A,,Overcast,30,2013-02-03 10:55:00
3:15 AM,28.4,26.6,93,30.21,0.2,North,5.8,-,N/A,,Overcast,10,2013-02-03 11:15:00
3:35 AM,28.4,28.4,100,30.20,0.2,Calm,Calm,-,N/A,,Overcast,0,2013-02-03 11:35:00
3:55 AM,28.4,26.6,93,30.20,0.2,NE,4.6,-,N/A,,Overcast,40,2013-02-03 11:55:00
4:15 AM,28.4,28.4,100,30.20,0.2,Calm,Calm,-,N/A,,Overcast,0,2013-02-03 12:15:00
4:35 AM,28.4,28.4,100,30.19,0.2,Calm,Calm,-,N/A,,Overcast,0,2013-02-03 12:35:00
4:55 AM,28.4,26.6,93,30.18,0.2,SSW,3.5,-,N/A,,Overcast,210,2013-02-03 12:55:00
5:15 AM,28.4,26.6,93,30.18,0.2,SSW,3.5,-,N/A,,Overcast,210,2013-02-03 13:15:00
5:35 AM,28.4,26.6,93,30.18,0.2,Calm,Calm,-,N/A,,Overcast,0,2013-02-03 13:35:00
5:55 AM,26.6,24.8,93,30.18,0.2,NNW,3.5,-,N/A,,Overcast,340,2013-02-03 13:55:00
6:15 AM,26.6,24.8,93,30.18,0.2,NNE,3.5,-,N/A,,Overcast,20,2013-02-03 14:15:00
6:35 AM,26.6,24.8,93,30.18,0.2,NNE,3.5,-,N/A,,Overcast,30,2013-02-03 14:35:00
6:55 AM,28.4,24.8,86,30.19,0.2,NNE,3.5,-,N/A,,Overcast,30,2013-02-03 14:55:00
7:15 AM,28.4,26.6,93,30.18,0.2,SE,3.5,-,N/A,,Overcast,130,2013-02-03 15:15:00
7:35 AM,28.4,24.8,86,30.18,0.2,Calm,Calm,-,N/A,,Overcast,0,2013-02-03 15:35:00
7:55 AM,28.4,26.6,93,30.19,0.2,WSW,3.5,-,N/A,,Overcast,240,2013-02-03 15:55:00
8:15 AM,30.2,26.6,86,30.19,0.2,SW,3.5,-,N/A,,Overcast,230,2013-02-03 16:15:00
8:35 AM,30.2,26.6,86,30.19,0.2,Calm,Calm,-,N/A,,Overcast,0,2013-02-03 16:35:00
8:55 AM,30.2,28.4,93,30.19,9.0,South,3.5,-,N/A,,Overcast,170,2013-02-03 16:55:00
9:15 AM,30.2,28.4,93,30.20,10.0,Calm,Calm,-,N/A,,Overcast,0,2013-02-03 17:15:00
9:35 AM,32.0,28.4,87,30.20,10.0,Calm,Calm,-,N/A,,Overcast,0,2013-02-03 17:35:00
9:55 AM,32.0,28.4,87,30.20,10.0,Calm,Calm,-,N/A,,Overcast,0,2013-02-03 17:55:00
10:15 AM,32.0,30.2,93,30.19,7.0,SSW,3.5,-,N/A,,Overcast,200,2013-02-03 18:15:00
10:35 AM,33.8,30.2,87,30.19,10.0,Calm,Calm,-,N/A,,Overcast,0,2013-02-03 18:35:00
10:55 AM,33.8,33.8,100,30.20,10.0,Calm,Calm,-,N/A,,Overcast,0,2013-02-03 18:55:00
11:15 AM,33.8,30.2,87,30.19,7.0,Calm,Calm,-,N/A,,Overcast,0,2013-02-03 19:15:00
11:35 AM,33.8,30.2,87,30.18,5.0,Calm,Calm,-,N/A,,Overcast,0,2013-02-03 19:35:00
11:55 AM,33.8,32.0,93,30.17,10.0,Calm,Calm,-,N/A,,Overcast,0,2013-02-03 19:55:00
12:15 PM,33.8,33.8,100,30.17,10.0,South,4.6,-,N/A,,Overcast,190,2013-02-03 20:15:00
12:35 PM,35.6,33.8,93,30.17,10.0,Calm,Calm,-,N/A,,Overcast,0,2013-02-03 20:35:00
12:55 PM,35.6,33.8,93,30.16,10.0,WSW,3.5,-,N/A,,Overcast,240,2013-02-03 20:55:00
1:15 PM,35.6,33.8,93,30.15,10.0,WSW,4.6,-,N/A,,Mostly Cloudy,240,2013-02-03 21:15:00
1:35 PM,35.6,33.8,93,30.15,10.0,WSW,3.5,-,N/A,,Overcast,240,2013-02-03 21:35:00
1:55 PM,35.6,33.8,93,30.14,10.0,Calm,Calm,-,N/A,,Overcast,0,2013-02-03 21:55:00
2:15 PM,35.6,33.8,93,30.13,10.0,Calm,Calm,-,N/A,,Overcast,0,2013-02-03 22:15:00
2:35 PM,35.6,32.0,87,30.14,10.0,Calm,Calm,-,N/A,,Overcast,0,2013-02-03 22:35:00
2:55 PM,35.6,33.8,93,30.14,10.0,Calm,Calm,-,N/A,,Overcast,0,2013-02-03 22:55:00
3:15 PM,35.6,32.0,87,30.15,10.0,WNW,3.5,-,N/A,,Overcast,300,2013-02-03 23:15:00
3:35 PM,35.6,33.8,93,30.15,10.0,Calm,Calm,-,N/A,,Overcast,0,2013-02-03 23:35:00
3:55 PM,35.6,32.0,87,30.15,10.0,SW,3.5,-,N/A,,Overcast,230,2013-02-03 23:55:00
4:15 PM,35.6,33.8,93,30.13,10.0,Calm,Calm,-,N/A,,Overcast,0,2013-02-04 00:15:00
4:35 PM,35.6,32.0,87,30.11,10.0,Calm,Calm,-,N/A,,Overcast,0,2013-02-04 00:35:00
4:55 PM,35.6,32.0,87,30.12,9.0,Calm,Calm,-,N/A,,Overcast,0,2013-02-04 00:55:00
5:15 PM,33.8,32.0,93,30.12,8.0,Calm,Calm,-,N/A,,Overcast,0,2013-02-04 01:15:00
5:35 PM,33.8,32.0,93,30.12,10.0,SW,5.8,-,N/A,,Overcast,230,2013-02-04 01:35:00
5:55 PM,33.8,32.0,93,30.11,8.0,WSW,6.9,-,N/A,,Partly Cloudy,240,2013-02-04 01:55:00
6:15 PM,33.8,30.2,87,30.11,6.0,SW,3.5,-,N/A,,Clear,230,2013-02-04 02:15:00
6:35 PM,33.8,30.2,87,30.12,5.0,Calm,Calm,-,N/A,,Scattered Clouds,0,2013-02-04 02:35:00
6:55 PM,33.8,30.2,87,30.11,5.0,SSW,3.5,-,N/A,,Overcast,210,2013-02-04 02:55:00
7:15 PM,32.0,30.2,93,30.10,4.0,South,4.6,-,N/A,,Overcast,180,2013-02-04 03:15:00
7:35 PM,33.8,30.2,87,30.10,4.0,South,4.6,-,N/A,,Mostly Cloudy,180,2013-02-04 03:35:00
7:55 PM,33.8,32.0,93,30.10,5.0,South,3.5,-,N/A,,Mostly Cloudy,170,2013-02-04 03:55:00
8:15 PM,32.0,30.2,93,30.10,4.0,Calm,Calm,-,N/A,,Scattered Clouds,0,2013-02-04 04:15:00
8:35 PM,30.2,30.2,100,30.10,3.0,Calm,Calm,-,N/A,,Partly Cloudy,0,2013-02-04 04:35:00
8:55 PM,30.2,30.2,100,30.10,4.0,Calm,Calm,-,N/A,,Partly Cloudy,0,2013-02-04 04:55:00
9:15 PM,32.0,28.4,87,30.09,3.0,Calm,Calm,-,N/A,,Mostly Cloudy,0,2013-02-04 05:15:00
9:35 PM,32.0,30.2,93,30.08,3.0,Calm,Calm,-,N/A,,Overcast,0,2013-02-04 05:35:00
9:55 PM,32.0,30.2,93,30.08,4.0,Calm,Calm,-,N/A,,Overcast,0,2013-02-04 05:55:00
10:15 PM,32.0,30.2,93,30.08,4.0,Calm,Calm,-,N/A,,Overcast,0,2013-02-04 06:15:00
10:35 PM,32.0,30.2,93,30.08,4.0,Calm,Calm,-,N/A,,Overcast,0,2013-02-04 06:35:00
10:55 PM,32.0,30.2,93,30.09,3.0,Calm,Calm,-,N/A,,Overcast,0,2013-02-04 06:55:00
11:15 PM,32.0,30.2,93,30.09,3.0,Calm,Calm,-,N/A,,Overcast,0,2013-02-04 07:15:00
11:35 PM,33.8,32.0,93,30.09,3.0,South,3.5,-,N/A,,Overcast,190,2013-02-04 07:35:00
11:55 PM,33.8,30.2,87,30.09,3.0,Calm,Calm,-,N/A,,Overcast,0,2013-02-04 07:55:00